DECAYED

OBJECT A, 58917 (Decayed)

Orbit data source: Space-Track

You're viewing an Uncataloged Satellite

Recently launched and/or uncataloged satellites may have evolving metadata. Metadata may include but not limited to: Owner, Maufacturer, Bus, Motor, and Mission.

OBJECT A, 58917 was a satellite in LEO that was launched on Sat, 03 Feb 2024 UTC via a JIELONG-3 launch vehicle from the South China Sea Launch Area (SCSLA). Unknown objects in Earth's orbit typically refer to objects detected orbiting the Earth but have not yet been identified or cataloged. These objects could be anything from previously untracked satellites, spent rocket stages, debris from satellite collisions, or even natural meteoroids temporarily captured by Earth's gravity. This object's orbit decayed before it could be identified.

Not visible in the next 10 days
Identifier
58917, 2024-024A
Orbit
Decayed
Country
Flag of TBDTBD
Related business
None
Manufacturer
Unknown
Mission
Decayed Commercial Imaging
Bus & Motor
Unknown
Mass
Unknown
Launch date (UTC)
2024-02-03 (2 years ago)
Launch vehicle
JIELONG-3
Launch site
South China Sea Launch Area (SCSLA)
Object type
Unknown
Shape & HBR
Box + 3 Pan, 0.1 m
Radar Cross Section
0.135 m², Medium (>0.1 m² and < 1m²)

Expand to show TLE details & history
Last TLE update: 1 year ago

TLE from 1 year ago
0 OBJECT A
1 58917U 24024A   25127.30226172  .07082575  24561-5  13117-2 0  9994
2 58917  97.3220 212.8671 0014484 266.6281  93.3358 16.31958565 70562
Epoch: 2025-05-07T07:15Z
TLE epoch observation values (Epoch: 2025-05-07T07:15:15.412Z)
Latitude
0.00001°
Longitude
-121.33618°
Altitude
191.092 km
Speed
7.791 km/s
True Right ascension
14h 11m 28s
True Declination
0° 00' 00"
Sunlit
Object was in full shadow at epoch
Visualization orbit readout
Latitude
Unknown
Longitude
Unknown
Altitude
Unknown
Speed
Unknown
Apparent Right ascension
Unknown
Apparent Declination
Unknown
Sunlit
N/A
Visualization observer readout
Local Sidereal Time
21:32:00
Azimuth
Unknown
Elevation
Unknown
Doppler factor
Unknown
Orbital elements
Apogee altitude
193.601 km
Perigee altitude
174.591 km
Semi-major axis
6,562.233 km
Eccentricity
0.00145
Inclination
97.322°
RAAN
212.8671°
Arg. of periapsis
266.6281°
True anomaly
93.50148°
Mean anomaly
93.3358°
Eccentric anomaly
93.41864°
Mean motion
4.08287 °/min
Orbital period
88.17 mins
BSTAR
0.0013117
Loading maneuver chart data...
Computing Atmospheric mass density...
Loading historical data...
Loading historical data...
Loading historical data...
Loading historical data...
Loading historical data...
Loading historical data...
Loading historical data...

Documentation

Showing up to 5 results
|